Date String (YYYY-MM-DD hh:mm:ss) UTC,Instrument flags,absolute air pressure of the measurement (hPa),sample flow rate (lpm),inlet stack bypass flow (lpm),air temperature of the measurement (°C),ambient temperature measured by the external sensor (°C),aerosol sample conditioner tube jacket temperature (°C),OPC LED temperature (°C),internal box temperature (°C),relative humidity of the measurement (%),span deviation,mass concentration of particles derived from Lorenz-Mie calculation of OPC scattering (μg/m³),mass concentration of particles derived from Lorenz-Mie calculation of OPC scattering (μg/m³),mass concentration of particles derived from Lorenz-Mie calculation of OPC scattering (μg/m³)
DateTimeUTC,F1_M11,P_M11,Q1_M11,Q2_M11,T1_M11,T2_M11,T3_M11,T4_M11,T5_M11,U1_M11,ZSPAN_M11,X0_M11,X2_M11,X1_M11
2023-07-15 03:00:00,SystemResetWarning,0835.9,5.01,000.00,029.4,025.4,000.0,037.6,030.4,33.4,0000.0,0015.44,0005.75,0004.42
2023-07-15 03:01:00,SystemResetWarning,0835.8,5.00,000.00,029.3,025.8,000.0,037.7,030.5,33.5,0000.0,0015.62,0005.66,0004.41
2023-07-15 03:02:00,SystemResetWarning,0835.8,5.00,000.00,029.3,026.2,000.0,037.7,030.6,33.4,0000.0,0016.42,0005.59,0004.41
2023-07-15 03:03:00,SystemResetWarning,0835.9,5.00,000.00,029.3,026.7,000.0,037.7,030.7,33.9,-000.4,0016.31,0005.57,0004.41
2023-07-15 03:04:00,SystemResetWarning,0835.8,5.00,000.00,029.3,027.0,000.0,037.7,030.7,34.3,0000.2,0016.37,0005.61,0004.42
2023-07-15 03:05:00,SystemResetWarning,0835.8,4.99,000.00,029.3,027.3,000.0,037.7,030.8,33.7,0000.1,0015.93,0005.60,0004.41
2023-07-15 03:06:00,SystemResetWarning,0835.9,5.00,000.00,029.4,027.6,000.0,037.7,030.9,34.0,0000.0,0015.07,0005.58,0004.41
2023-07-15 03:07:00,SystemResetWarning,0835.9,5.00,000.00,029.4,027.8,000.0,037.8,031.0,33.7,0000.0,0015.43,0005.56,0004.42
2023-07-15 03:08:00,SystemResetWarning,0835.9,5.00,000.00,029.5,027.9,000.0,037.8,031.0,33.3,0000.0,0015.67,0005.57,0004.43
2023-07-15 03:09:00,SystemResetWarning,0835.9,5.00,000.00,029.4,026.4,000.0,037.7,030.8,33.3,0000.0,0014.80,0005.60,0004.45
2023-07-15 03:10:00,SystemResetWarning,0835.9,5.01,000.00,029.4,025.4,000.0,037.5,030.6,33.7,0001.5,0014.75,0005.60,0004.46
2023-07-15 03:11:00,SystemResetWarning,0835.9,5.00,000.00,029.3,025.3,000.0,037.5,030.4,33.6,0001.6,0015.43,0005.68,0004.47
2023-07-15 03:12:00,SystemResetWarning,0835.9,5.01,000.00,029.2,025.6,000.0,037.6,030.4,33.8,0000.4,0015.24,0005.73,0004.50
2023-07-15 03:13:00,SystemResetWarning,0835.9,4.99,000.00,029.2,026.1,000.0,037.6,030.5,33.7,0000.6,0014.47,0005.80,0004.53
2023-07-15 03:14:00,SystemResetWarning,0835.9,5.00,000.00,029.2,026.5,000.0,037.6,030.6,34.5,0000.3,0016.15,0005.90,0004.55
2023-07-15 03:15:00,SystemResetWarning,0835.9,4.98,000.00,029.2,026.9,000.0,037.6,030.7,35.1,0000.0,0016.06,0005.92,0004.57
2023-07-15 03:16:00,SystemResetWarning,0835.9,5.02,000.00,029.4,027.2,000.0,037.7,030.8,34.8,0000.0,0016.08,0005.94,0004.60
2023-07-15 03:17:00,SystemResetWarning,0835.9,4.99,000.00,029.5,027.5,000.0,037.7,030.9,34.5,0000.0,0015.88,0005.99,0004.62
2023-07-15 03:18:00,SystemResetWarning,0836.0,5.02,000.00,029.6,027.7,000.0,037.7,031.0,33.9,0000.3,0014.95,0006.01,0004.62
2023-07-15 03:19:00,SystemResetWarning,0836.1,4.99,000.00,029.7,027.9,000.0,037.7,031.0,34.0,0000.7,0013.98,0005.98,0004.63
2023-07-15 03:20:00,SystemResetWarning,0836.1,4.99,000.00,029.8,028.1,000.0,037.8,031.1,33.8,0000.0,0014.35,0006.00,0004.63
2023-07-15 03:21:00,SystemResetWarning,0836.1,5.00,000.00,029.8,026.9,000.0,037.7,031.0,33.2,0000.0,0015.22,0005.98,0004.63
2023-07-15 03:22:00,SystemResetWarning,0836.1,5.00,000.00,029.8,025.6,000.0,037.7,030.8,32.8,0000.0,0015.11,0005.95,0004.64
2023-07-15 03:23:00,SystemResetWarning,0836.0,5.01,000.00,029.7,025.3,000.0,037.7,030.5,32.8,0000.0,0015.08,0005.94,0004.63
2023-07-15 03:24:00,SystemResetWarning,0836.0,5.01,000.00,029.6,025.6,000.0,037.7,030.4,32.7,0000.0,0014.99,0005.97,0004.63
2023-07-15 03:25:00,SystemResetWarning,0836.0,5.00,000.00,029.5,026.0,000.0,037.8,030.5,32.5,0000.0,0013.40,0005.93,0004.63
2023-07-15 03:26:00,SystemResetWarning,0836.0,5.00,000.00,029.5,026.4,000.0,037.8,030.6,32.2,0000.0,0013.16,0005.90,0004.61
2023-07-15 03:27:00,SystemResetWarning,0836.0,5.00,000.00,029.5,026.8,000.0,037.8,030.7,32.1,0000.0,0013.78,0005.91,0004.60
2023-07-15 03:28:00,SystemResetWarning,0836.1,5.00,000.00,029.6,027.2,000.0,037.9,030.8,32.6,0000.0,0014.15,0005.86,0004.59
2023-07-15 03:29:00,SystemResetWarning,0836.1,5.00,000.00,029.6,027.4,000.0,037.9,030.9,32.6,0000.0,0014.94,0005.88,0004.60
2023-07-15 03:30:00,SystemResetWarning,0836.0,5.00,000.00,029.6,027.7,000.0,037.9,030.9,32.6,0000.0,0015.60,0005.85,0004.58
2023-07-15 03:31:00,SystemResetWarning,0835.9,5.00,000.00,029.7,027.9,000.0,037.9,031.0,32.3,0000.0,0015.23,0005.80,0004.56
2023-07-15 03:32:00,SystemResetWarning,0835.9,4.99,000.00,029.7,028.0,000.0,037.9,031.1,32.3,0000.0,0014.54,0005.81,0004.54
2023-07-15 03:33:00,SystemResetWarning,0835.9,4.99,000.00,029.7,027.4,000.0,037.9,031.0,32.4,0000.0,0013.74,0005.71,0004.52
2023-07-15 03:34:00,SystemResetWarning,0835.9,5.00,000.00,029.7,025.8,000.0,037.8,030.8,32.5,0000.0,0013.68,0005.65,0004.50
2023-07-15 03:35:00,SystemResetWarning,0835.9,5.00,000.00,029.6,025.3,000.0,037.7,030.6,32.4,0000.6,0013.99,0005.62,0004.46
2023-07-15 03:36:00,SystemResetWarning,0836.0,5.01,000.00,029.5,025.5,000.0,037.7,030.5,32.6,0000.0,0014.04,0005.61,0004.44
2023-07-15 03:37:00,SystemResetWarning,0836.1,4.99,000.00,029.4,025.9,000.0,037.8,030.5,33.0,0000.0,0014.16,0005.62,0004.41
2023-07-15 03:38:00,SystemResetWarning,0836.1,5.00,000.00,029.4,026.3,000.0,037.8,030.6,32.9,0001.0,0013.58,0005.58,0004.41
2023-07-15 03:39:00,SystemResetWarning,0836.1,5.00,000.00,029.4,026.7,000.0,037.8,030.7,32.9,0001.6,0013.04,0005.57,0004.39
2023-07-15 03:40:00,SystemResetWarning,0836.2,5.00,000.00,029.4,027.0,000.0,037.8,030.8,33.5,0001.1,0012.44,0005.52,0004.36
2023-07-15 03:41:00,SystemResetWarning,0836.2,5.00,000.00,029.4,027.3,000.0,037.8,030.8,33.2,0001.1,0012.45,0005.52,0004.35
2023-07-15 03:42:00,SystemResetWarning,0836.2,5.00,000.00,029.5,027.6,000.0,037.8,030.9,33.3,0001.2,0013.64,0005.55,0004.34
2023-07-15 03:43:00,SystemResetWarning,0836.2,5.00,000.00,029.5,027.8,000.0,037.8,030.9,34.4,0000.8,0014.13,0005.53,0004.33
2023-07-15 03:44:00,SystemResetWarning,0836.2,4.99,000.00,029.5,028.0,000.0,037.9,031.0,34.3,0000.4,0014.50,0005.49,0004.32
2023-07-15 03:45:00,SystemResetWarning,0836.2,5.01,000.00,029.6,028.1,000.0,037.9,031.1,33.9,-000.4,0015.35,0005.50,0004.32
2023-07-15 03:46:00,SystemResetWarning,0836.2,4.98,000.00,029.6,027.0,000.0,037.8,031.0,33.5,-000.1,0015.34,0005.49,0004.32
2023-07-15 03:47:00,SystemResetWarning,0836.2,5.00,000.00,029.5,025.6,000.0,037.7,030.7,32.6,-000.6,0015.29,0005.44,0004.33
2023-07-15 03:48:00,SystemResetWarning,0836.2,5.00,000.00,029.4,025.2,000.0,037.6,030.5,33.0,-000.9,0015.68,0005.40,0004.33
2023-07-15 03:49:00,SystemResetWarning,0836.2,5.01,000.00,029.3,025.5,000.0,037.7,030.4,33.7,-000.7,0016.82,0005.42,0004.34
2023-07-15 03:50:00,SystemResetWarning,0836.2,5.00,000.00,029.3,025.9,000.0,037.7,030.5,33.8,-000.2,0017.23,0005.43,0004.35
2023-07-15 03:51:00,SystemResetWarning,0836.2,4.99,000.00,029.3,026.3,000.0,037.7,030.6,33.7,0000.2,0017.65,0005.45,0004.35
2023-07-15 03:52:00,SystemResetWarning,0836.3,5.00,000.00,029.3,026.7,000.0,037.7,030.7,34.2,0001.1,0017.95,0005.44,0004.34
2023-07-15 03:53:00,SystemResetWarning,0836.3,5.00,000.00,029.3,027.1,000.0,037.7,030.7,34.1,0000.1,0016.95,0005.46,0004.36
2023-07-15 03:54:00,SystemResetWarning,0836.3,5.00,000.00,029.3,027.4,000.0,037.7,030.8,33.2,0000.0,0016.51,0005.47,0004.38
2023-07-15 03:55:00,SystemResetWarning,0836.3,5.00,000.00,029.3,027.6,000.0,037.8,030.8,33.1,0000.0,0016.40,0005.54,0004.41
2023-07-15 03:56:00,SystemResetWarning,0836.3,4.99,000.00,029.4,027.8,000.0,037.8,030.9,32.8,0000.1,0015.35,0005.57,0004.41
2023-07-15 03:57:00,SystemResetWarning,0836.3,5.00,000.00,029.4,028.0,000.0,037.8,031.0,32.6,-000.4,0014.70,0005.56,0004.41
2023-07-15 03:58:00,SystemResetWarning,0836.4,5.01,000.00,029.5,028.1,000.0,037.8,031.0,32.3,-000.1,0014.73,0005.56,0004.41
2023-07-15 03:59:00,SystemResetWarning,0836.3,4.98,000.00,029.5,027.7,000.0,037.8,031.0,32.2,0000.0,0014.97,0005.59,0004.42
